This is the latest recevied weather packets stored in our database for station/object OE-11372. If no packets are shown the sender has not sent any weather packets the latest 10 day(s).
| Time | Temp. | Humidity | Pressure | Rain* | Wind** | Luminosity | Snow |
|---|---|---|---|---|---|---|---|
| 1788032476 | 13.33° C | 82% | 853 hPa | 0 mm | - | 0 W/m² | - |
| 1788032103 | 13.89° C | 81% | 852.9 hPa | 0 mm | - | 0 W/m² | - |
| 1788031503 | 13.89° C | 81% | 853 hPa | 0 mm | - | 0 W/m² | - |
| 1788030676 | 14.44° C | 79% | 852.9 hPa | 0 mm | - | 0 W/m² | - |
| 1788030303 | 14.44° C | 79% | 852.8 hPa | 0 mm | - | 0 W/m² | - |
| 1788029703 | 14.44° C | 79% | 852.7 hPa | 0 mm | - | 0 W/m² | - |
| 1788028877 | 15° C | 76% | 852.7 hPa | 0 mm | - | 0 W/m² | - |
| 1788028503 | 15° C | 77% | 852.7 hPa | 0 mm | - | 0 W/m² | - |
| 1788027903 | 15.56° C | 75% | 852.7 hPa | 0 mm | - | 0 W/m² | - |
| 1788027076 | 16.11° C | 74% | 852.7 hPa | 0 mm | - | 8 W/m² | - |
| 1788026703 | 16.11° C | 75% | 852.6 hPa | 0 mm | - | 8 W/m² | - |
| 1788026103 | 16.67° C | 74% | 852.7 hPa | 0 mm | - | 8 W/m² | - |
| 1788025276 | 16.67° C | 74% | 852.8 hPa | 0 mm | - | 16 W/m² | - |
| 1788024903 | 16.67° C | 73% | 852.8 hPa | 0 mm | - | 16 W/m² | - |
| 1788024303 | 16.67° C | 71% | 852.8 hPa | 0 mm | - | 16 W/m² | - |
| 1788023476 | 17.22° C | 71% | 852.9 hPa | 0 mm | - | 16 W/m² | - |
| 1788023102 | 17.22° C | 71% | 852.8 hPa | 0 mm | - | 25 W/m² | - |
| 1788022503 | 17.78° C | 70% | 852.9 hPa | 0 mm | - | 33 W/m² | - |
| 1788021676 | 17.78° C | 66% | 852.9 hPa | 0 mm | - | 25 W/m² | - |
| 1788021303 | 18.33° C | 67% | 853 hPa | 0 mm | - | 33 W/m² | - |
| 1788020702 | 18.33° C | 65% | 852.9 hPa | 0 mm | - | 91 W/m² | - |
| 1788019876 | 18.89° C | 65% | 852.9 hPa | 0 mm | - | 107 W/m² | - |
| 1788019503 | 18.89° C | 62% | 852.9 hPa | 0 mm | - | 132 W/m² | - |
| 1788018902 | 18.89° C | 63% | 852.8 hPa | 0 mm | - | 157 W/m² | - |
| 1788018076 | 18.89° C | 61% | 852.8 hPa | 0 mm | - | 181 W/m² | - |
* Rain latest hour (hover to see other rain measurements)
** Current wind speed in m/s (hover to see current wind gust speed)